This demonstration page uses our WeatherBlox Daily Observations layout. Learn more.

Left ArrowRight Arrow

39.12711, -84.51439

Hourly Observations for September 3, 2016

Temp ( °F °C ) Dew Point ( °F °C ) Humidity (%) Winds ( mph kmh ) Pressure ( in mb ) Visibility ( mi km ) Precip ( " mm )
12:53 am 00:53 Clear 63 17.2 59 15 87 87 NE 7 11 30.14 1021 10 16 0.00 0.00
1:53 am 01:53 Clear 62 16.7 59 15 90 90 NE 8 13 30.14 1021 10 16 0.00 0.00
2:53 am 02:53 Clear 61 16.1 58 14.4 90 90 NE 7 11 30.13 1020 10 16 0.00 0.00
3:53 am 03:53 Clear 60 15.6 57 13.9 90 90 ENE 3 6 30.13 1020 10 16 0.00 0.00
4:53 am 04:53 Clear 60 15.6 57 13.9 90 90 NE 3 6 30.12 1020 10 16 0.00 0.00
5:53 am 05:53 Clear 59 15 57 13.9 93 93 NE 3 6 30.13 1020 10 16 0.00 0.00
6:53 am 06:53 Clear 56 13.3 56 13.3 100 100 Calm 30.15 1021 10 16 0.00 0.00
7:53 am 07:53 Sunny 57 13.9 57 13.9 100 100 Calm 30.17 1022 10 16 0.00 0.00
8:53 am 08:53 Sunny 63 17.2 58 14.4 84 84 NE 6 9 30.19 1023 10 16 0.00 0.00
9:53 am 09:53 Sunny 67 19.4 59 15 76 76 NNE 7 11 30.19 1023 10 16 0.00 0.00
10:53 am 10:53 Sunny 71 21.7 60 15.6 68 68 Calm 30.19 1023 10 16 0.00 0.00
11:53 am 11:53 Sunny 74 23.3 60 15.6 62 62 ENE 6 9 30.19 1022 10 16 0.00 0.00
12:53 pm 12:53 Partly Cloudy 77 25 60 15.6 56 56 ENE 5 7 30.16 1022 10 16 0.00 0.00
1:53 pm 13:53 Partly Cloudy 76 24.4 58 14.4 54 54 NNE 10 17 30.16 1021 10 16 0.00 0.00
2:53 pm 14:53 Partly Cloudy 78 25.6 58 14.4 50 50 ENE 12 19 30.15 1021 10 16 0.00 0.00
3:53 pm 15:53 Mostly Sunny 80 26.7 58 14.4 47 47 ENE 13 20 30.12 1020 10 16 0.00 0.00
4:53 pm 16:53 Mostly Sunny 80 26.7 58 14.4 47 47 NE 10 17 30.11 1020 10 16 0.00 0.00
5:53 pm 17:53 Mostly Sunny 79 26.1 58 14.4 49 49 ENE 12 19 30.11 1020 10 16 0.00 0.00
6:53 pm 18:53 Mostly Sunny 77 25 58 14.4 52 52 E 6 9 30.12 1020 10 16 0.00 0.00
7:53 pm 19:53 Mostly Sunny 71 21.7 63 17.2 76 76 ESE 3 6 30.13 1020 10 16 0.00 0.00
8:53 pm 20:53 Clear 65 18.3 61 16.1 87 87 Calm 30.14 1021 10 16 0.00 0.00
9:53 pm 21:53 Clear 62 16.7 60 15.6 93 93 Calm 30.14 1021 10 16 0.00 0.00
10:53 pm 22:53 Clear 62 16.7 61 16.1 96 96 Calm 30.15 1021 10 16 0.00 0.00
11:53 pm 23:53 Clear 59 15 59 15 100 100 Calm 30.16 1021 8 13 0.00 0.00

Powered by AerisWeather